SCP
0 0 0 0 0 0 0 0 0 0 0 0 0 0 0 0 0 0 0 0 0 0
0 0 0 0 0 0 0 0 0 0 0 0 0 0 0 0 0 0 0 0 0 0
0 0 0 0 0 0 0 0 0 0 0 0 0 0 0 0 0 0 0 0 0 0
0 0 0 0 0 0 0 0 0 0 0 0 0 0 0 0 0 0 0 0 0 0
0 0 0 0 0 0 0 0 0 0 0 0 0 0 0 0 0 0 0 0 0 0
0 0 0 0 0 0 0 0 0 0 0 0 0 0 0 0 0 0 0 0 0 0
0 0 0 0 0 0 0 0 0 0 0 0 0 0 0 0 0 0 0 0 0 0
0 0 0 0 0 0 0 0 0 0 0 0 0 0 0 0 0 0 0 0 0 0
0 0 0 0 0 0 0 0 0 0 0 0 0 0 0 0 0 0 0 0 0 0
0 0 0 0 0 0 0 0 0 0 0 0 0 0 0 0 0 0 0 0 0 0
0 0 0 0 0 0 0 0 0 0 0 0 0 0 0 0 0 0 0 0 0 0
0 0 0 0 0 0 0 0 0 0 0 0 0 0 0 0 0 0 0 0 0 0
0 0 0 0 0 0 0 0 0 0 0 0 0 0 0 0 0 0 0 0 0 0
0 0 0 0 0 0 0 0 0 0 0 0 0 0 0 0 0 0 0 0 0 0
Wind_Speed_500mb
25 20 20 22 24 23 26 26 29 30 29 32 35 36 37 36 33 32 34 32 31 31
23 24 23 24 25 24 25 28 31 31 31 33 35 38 38 35 39 34 37 35 37 31
23 24 24 24 26 27 29 30 30 30 32 33 36 39 35 33 37 36 39 35 34 37
22 23 24 25 27 28 29 30 29 31 33 35 37 36 32 33 38 40 39 37 40 39
22 24 26 27 29 30 30 29 31 32 34 35 36 34 32 37 42 40 43 42 38 40
23 25 26 28 30 32 32 31 33 33 33 35 37 35 35 39 46 43 40 39 37 36
24 27 28 31 32 35 35 34 34 33 34 36 37 34 43 46 47 43 38 38 36 34
24 27 30 32 33 35 34 36 35 35 36 37 36 40 47 52 48 41 40 39 35 31
25 28 31 32 33 34 34 36 37 38 39 40 38 55 50 55 47 40 38 40 35 33
25 27 29 31 32 35 36 38 38 39 42 43 39 63 55 53 41 38 39 38 35 36
24 26 28 32 33 35 36 39 38 41 42 43 43 66 59 56 43 39 40 36 36 37
26 26 30 33 36 36 37 38 38 40 42 44 47 67 65 60 46 45 41 37 35 38
25 26 30 33 35 35 36 36 38 40 40 46 48 60 67 61 49 50 44 39 37 37
24 26 30 32 34 35 36 36 38 40 41 44 50 57 63 60 56 54 43 41 42 41
Wind_Direction_500mb
359 3 356 348 348 341 337 334 330 330 328 327 327 327 328 326 320 316 314 305 297 296
3 359 353 352 346 340 336 331 328 329 326 325 325 327 327 319 323 327 319 310 303 297
359 356 354 351 345 341 336 332 330 328 325 325 326 327 328 323 321 325 320 315 306 304
359 356 355 351 346 342 338 336 334 330 329 327 329 332 327 325 331 322 321 314 309 305
357 357 356 354 351 349 345 342 337 335 333 332 335 335 332 329 336 323 321 315 308 306
0 359 358 357 355 356 353 347 344 341 340 339 340 338 329 339 332 323 319 314 310 307
1 2 1 2 1 1 359 353 351 347 345 344 342 337 338 337 330 323 319 321 314 310
2 6 6 6 5 3 2 360 355 353 350 349 347 334 345 338 330 325 324 324 320 315
9 9 8 7 5 3 2 0 358 357 355 352 349 337 350 340 335 329 325 325 323 319
10 9 8 6 3 3 1 360 359 358 358 355 348 351 352 349 346 335 331 327 326 325
11 9 7 6 3 2 2 359 359 360 358 356 352 354 359 358 349 342 337 334 330 331
13 8 6 5 3 1 0 0 1 0 358 357 357 356 2 1 354 348 344 339 339 341
8 5 4 2 359 360 0 0 1 1 0 359 358 354 3 4 357 352 351 351 350 350
6 2 4 0 357 360 2 3 3 4 3 2 0 1 6 8 4 357 356 352 355 0
Wind_Speed_850mb
25 20 20 22 24 23 26 26 29 30 29 32 35 36 37 36 33 32 34 32 31 31
23 24 23 24 25 24 25 28 31 31 31 33 35 38 38 35 39 34 37 35 37 31
23 24 24 24 26 27 29 30 30 30 32 33 36 39 35 33 37 36 39 35 34 37
22 23 24 25 27 28 29 30 29 31 33 35 37 36 32 33 38 40 39 37 40 39
22 24 26 27 29 30 30 29 31 32 34 35 36 34 32 37 42 40 43 42 38 40
23 25 26 28 30 32 32 31 33 33 33 35 37 35 35 39 46 43 40 39 37 36
24 27 28 31 32 35 35 34 34 33 34 36 37 34 43 46 47 43 38 38 36 34
24 27 30 32 33 35 34 36 35 35 36 37 36 40 47 52 48 41 40 39 35 31
25 28 31 32 33 34 34 36 37 38 39 40 38 55 50 55 47 40 38 40 35 33
25 27 29 31 32 35 36 38 38 39 42 43 39 63 55 53 41 38 39 38 35 36
24 26 28 32 33 35 36 39 38 41 42 43 43 66 59 56 43 39 40 36 36 37
26 26 30 33 36 36 37 38 38 40 42 44 47 67 65 60 46 45 41 37 35 38
25 26 30 33 35 35 36 36 38 40 40 46 48 60 67 61 49 50 44 39 37 37
24 26 30 32 34 35 36 36 38 40 41 44 50 57 63 60 56 54 43 41 42 41
Wind_Direction_850mb
359 3 356 348 348 341 337 334 330 330 328 327 327 327 328 326 320 316 314 305 297 296
3 359 353 352 346 340 336 331 328 329 326 325 325 327 327 319 323 327 319 310 303 297
359 356 354 351 345 341 336 332 330 328 325 325 326 327 328 323 321 325 320 315 306 304
359 356 355 351 346 342 338 336 334 330 329 327 329 332 327 325 331 322 321 314 309 305
357 357 356 354 351 349 345 342 337 335 333 332 335 335 332 329 336 323 321 315 308 306
0 359 358 357 355 356 353 347 344 341 340 339 340 338 329 339 332 323 319 314 310 307
1 2 1 2 1 1 359 353 351 347 345 344 342 337 338 337 330 323 319 321 314 310
2 6 6 6 5 3 2 360 355 353 350 349 347 334 345 338 330 325 324 324 320 315
9 9 8 7 5 3 2 0 358 357 355 352 349 337 350 340 335 329 325 325 323 319
10 9 8 6 3 3 1 360 359 358 358 355 348 351 352 349 346 335 331 327 326 325
11 9 7 6 3 2 2 359 359 360 358 356 352 354 359 358 349 342 337 334 330 331
13 8 6 5 3 1 0 0 1 0 358 357 357 356 2 1 354 348 344 339 339 341
8 5 4 2 359 360 0 0 1 1 0 359 358 354 3 4 357 352 351 351 350 350
6 2 4 0 357 360 2 3 3 4 3 2 0 1 6 8 4 357 356 352 355 0